Погода в Терской

Россия / Республика Северная Осетия — Алания     43°43′17″N   44°43′28″E
темп.,
°C
ветер,
м/с
пор.,
м/с
влажн.,
%
обл.,
%
осадки,
мм/ч
давл.,
гПа
погр.,
м
13 апреля, вт
вт1300:00+10зсз2479100 0.0 1022198
03:00+10з2380100 0.0 1023136
06:00+10з2378100 0.0 1022116
09:00+11сз2171100 0.0 1022471
12:00+13ссз217196 0.0 1021624
15:00+16зсз116192 0.0 10201050
18:00+14з4670100 0.0 1019308
21:00+12з4775100 0.0 1020311
14 апреля, ср
ср1400:00+10з4783100 0.1 1018326
03:00+10з4884100 0.2 1017344
06:00+9зюз3688100 0.0 1017232
09:00+13зсз5766100 0.0 1017845
12:00+16сз5656100 0.0 10161520
15:00+15сз5657100 0.0 10161254
18:00+14ссз3568100 0.0 1017152
21:00+10з22795 0.0 101823
15 апреля, чт
чт1500:00+9з34835 0.0 101756
03:00+8з33905 0.0 101733
06:00+8зюз33881 0.0 101848
09:00+15з34609 0.0 1017564
12:00+19с22450 0.0 10161257
15:00+21с22380 0.0 10151736
18:00+18ссв33465 0.0 101537
21:00
16 апреля, пт
пт1600:00+12вюв115998 0.2 101610
03:00+11св116293 0.2 101610
06:00+11вюв116554 0.0 101710
09:00+17в344899 0.0 1017546
12:00+21в56367 0.0 10151538
15:00+22в563384 0.0 10141940
18:00+19вюв37517 0.0 1014127
21:00+13вюв3864100 0.3 1016152
17 апреля, сб
сб1700:00+12з2275100 0.1 101712
03:00+10з4695100 0.1 1018155
06:00+9зсз4791100 0.0 1019318
09:00+12ссз4578100 0.0 1021768
12:00+12ссз4576100 0.1 1021798
15:00+12сз3474100 0.1 1022657
18:00+11зсз2279100 0.1 102272
21:00+10зюз2281100 0.1 102181